When you browse on this site, cookies collect data to enhance your experience and personalize the content and advertising you see.
Visit our Privacy Policy to learn more. By continuing to use the site, you agree to this use of cookies and data.
  • In Deutschland
  • Länderverzeichnis
  • Für 7 Tage
  • Wassertemperatur
  • Wetterkarte
  • Widgets
  • user-avatar
    Anmelden

    Stündliche Wetter Laszkar Gah

    Heute, 7 Dezember, Samstag

    Zeit Temperatur Niederschläge Wind Luftdruck Luftfeuchtigkeit
    00:00 +14°C° 0 mm 2 m/S 698 mmHg 29%
    01:00 +14°C° 0 mm 2 m/S 698 mmHg 29%
    02:00 +13°C° 0 mm 2 m/S 698 mmHg 29%
    03:00 +13°C° 0 mm 2 m/S 698 mmHg 29%
    04:00 +13°C° 0 mm 2 m/S 698 mmHg 29%
    05:00 +13°C° 0 mm 2 m/S 698 mmHg 30%
    06:00 +13°C° 0 mm 2 m/S 698 mmHg 31%
    07:00 +12°C° 0 mm 2 m/S 699 mmHg 32%
    08:00 +14°C° 0 mm 2 m/S 699 mmHg 28%
    09:00 +16°C° 0 mm 2 m/S 700 mmHg 25%
    10:00 +19°C° 0 mm 1 m/S 700 mmHg 21%
    11:00 +19°C° 0 mm 1 m/S 700 mmHg 20%
    12:00 +20°C° 0 mm 1 m/S 699 mmHg 19%
    13:00 +21°C° 0 mm 1 m/S 699 mmHg 18%
    14:00 +20°C° 0 mm 1 m/S 698 mmHg 20%
    15:00 +20°C° 0 mm 1 m/S 698 mmHg 22%
    16:00 +20°C° 0 mm 1 m/S 698 mmHg 24%
    17:00 +18°C° 0 mm 1 m/S 698 mmHg 26%
    18:00 +16°C° 0 mm 1 m/S 698 mmHg 28%
    19:00 +15°C° 0 mm 1 m/S 698 mmHg 30%
    20:00 +15°C° 0 mm 1 m/S 698 mmHg 30%
    21:00 +14°C° 0 mm 1 m/S 698 mmHg 31%
    22:00 +14°C° 0 mm 1 m/S 698 mmHg 31%
    23:00 +13°C° 0 mm 1 m/S 697 mmHg 30%

    Morgen, 8 Dezember, Sonntag

    Zeit Temperatur Niederschläge Wind Luftdruck Luftfeuchtigkeit
    00:00 +13°C° 0 mm 2 m/S 697 mmHg 30%
    01:00 +13°C° 0 mm 2 m/S 697 mmHg 29%
    02:00 +13°C° 0 mm 2 m/S 697 mmHg 30%
    03:00 +12°C° 0 mm 2 m/S 697 mmHg 30%
    04:00 +12°C° 0 mm 2 m/S 697 mmHg 31%
    05:00 +12°C° 0 mm 2 m/S 697 mmHg 31%
    06:00 +12°C° 0 mm 2 m/S 697 mmHg 31%
    07:00 +12°C° 0 mm 2 m/S 697 mmHg 32%
    08:00 +13°C° 0 mm 2 m/S 698 mmHg 28%
    09:00 +14°C° 0 mm 3 m/S 698 mmHg 25%
    10:00 +17°C° 0 mm 3 m/S 699 mmHg 22%
    11:00 +18°C° 0 mm 3 m/S 698 mmHg 20%
    12:00 +19°C° 0 mm 3 m/S 698 mmHg 18%
    13:00 +20°C° 0 mm 4 m/S 697 mmHg 16%
    14:00 +19°C° 0 mm 3 m/S 697 mmHg 17%
    15:00 +19°C° 0 mm 3 m/S 696 mmHg 19%
    16:00 +18°C° 0 mm 3 m/S 696 mmHg 20%
    17:00 +18°C° 0 mm 3 m/S 696 mmHg 22%
    18:00 +17°C° 0 mm 4 m/S 696 mmHg 23%
    19:00 +15°C° 0 mm 4 m/S 696 mmHg 24%
    20:00 +15°C° 0 mm 4 m/S 696 mmHg 25%
    21:00 +15°C° 0 mm 4 m/S 696 mmHg 25%
    22:00 +15°C° 0 mm 4 m/S 696 mmHg 26%
    23:00 +14°C° 0 mm 4 m/S 696 mmHg 26%

    übermorgen, 9 Dezember, Montag

    Zeit Temperatur Niederschläge Wind Luftdruck Luftfeuchtigkeit
    00:00 +14°C° 0 mm 4 m/S 696 mmHg 27%
    01:00 +14°C° 0 mm 4 m/S 696 mmHg 28%
    02:00 +14°C° 0 mm 4 m/S 695 mmHg 28%
    03:00 +14°C° 0 mm 4 m/S 695 mmHg 29%
    04:00 +14°C° 0 mm 4 m/S 695 mmHg 30%
    05:00 +13°C° 0 mm 4 m/S 695 mmHg 30%
    06:00 +13°C° 0 mm 4 m/S 695 mmHg 31%
    07:00 +13°C° 0 mm 4 m/S 696 mmHg 31%
    08:00 +14°C° 0 mm 4 m/S 696 mmHg 28%
    09:00 +17°C° 0 mm 4 m/S 697 mmHg 24%
    10:00 +19°C° 0 mm 4 m/S 697 mmHg 21%
    11:00 +19°C° 0 mm 4 m/S 697 mmHg 21%
    12:00 +20°C° 0 mm 4 m/S 696 mmHg 21%
    13:00 +21°C° 0 mm 3 m/S 696 mmHg 21%
    14:00 +21°C° 0 mm 3 m/S 695 mmHg 23%
    15:00 +20°C° 0 mm 3 m/S 695 mmHg 24%
    16:00 +20°C° 0 mm 3 m/S 695 mmHg 26%
    17:00 +19°C° 0 mm 3 m/S 695 mmHg 28%
    18:00 +18°C° 0 mm 4 m/S 695 mmHg 29%
    19:00 +17°C° 0 mm 4 m/S 695 mmHg 31%
    20:00 +17°C° 0 mm 4 m/S 695 mmHg 32%
    21:00 +15°C° 0 mm 4 m/S 695 mmHg 33%
    22:00 +15°C° 0 mm 4 m/S 695 mmHg 34%
    23:00 +15°C° 0 mm 4 m/S 695 mmHg 37%

    10 Dezember, Dienstag

    Zeit Temperatur Niederschläge Wind Luftdruck Luftfeuchtigkeit
    00:00 +16°C° 0 mm 3 m/S 694 mmHg 39%
    01:00 +16°C° 0 mm 3 m/S 694 mmHg 41%
    02:00 +14°C° 0.1 mm 3 m/S 694 mmHg 45%
    03:00 +14°C° 0.1 mm 3 m/S 694 mmHg 48%
    04:00 +13°C° 0.1 mm 3 m/S 694 mmHg 51%
    05:00 +13°C° 0.1 mm 4 m/S 694 mmHg 52%
    06:00 +13°C° 0.1 mm 4 m/S 694 mmHg 53%
    07:00 +13°C° 0.1 mm 4 m/S 695 mmHg 54%
    08:00 +14°C° 0 mm 4 m/S 695 mmHg 51%
    09:00 +17°C° 0 mm 4 m/S 695 mmHg 48%
    10:00 +18°C° 0 mm 4 m/S 696 mmHg 45%
    11:00 +19°C° 0 mm 3 m/S 695 mmHg 44%
    12:00 +20°C° 0 mm 3 m/S 695 mmHg 42%
    13:00 +20°C° 0 mm 2 m/S 694 mmHg 41%
    14:00 +20°C° 0 mm 2 m/S 694 mmHg 42%
    15:00 +20°C° 0 mm 2 m/S 694 mmHg 44%
    16:00 +20°C° 0 mm 2 m/S 693 mmHg 45%
    17:00 +19°C° 0 mm 2 m/S 693 mmHg 48%
    18:00 +18°C° 0 mm 2 m/S 693 mmHg 50%
    19:00 +18°C° 0 mm 2 m/S 693 mmHg 53%
    20:00 +18°C° 0 mm 2 m/S 693 mmHg 54%
    21:00 +17°C° 0 mm 2 m/S 693 mmHg 55%
    22:00 +18°C° 0 mm 1 m/S 693 mmHg 56%
    23:00 +16°C° 0.5 mm 2 m/S 693 mmHg 62%

    11 Dezember, Mittwoch

    Zeit Temperatur Niederschläge Wind Luftdruck Luftfeuchtigkeit
    00:00 +16°C° 0.5 mm 3 m/S 693 mmHg 68%
    01:00 +14°C° 0.5 mm 3 m/S 693 mmHg 75%
    02:00 +14°C° 0.1 mm 3 m/S 692 mmHg 74%
    03:00 +14°C° 0.1 mm 3 m/S 692 mmHg 74%
    04:00 +14°C° 0.1 mm 3 m/S 692 mmHg 73%
    05:00 +14°C° 0.5 mm 3 m/S 692 mmHg 75%
    06:00 +14°C° 0.5 mm 3 m/S 693 mmHg 77%
    07:00 +14°C° 0.5 mm 3 m/S 693 mmHg 79%
    08:00 +13°C° 0.7 mm 3 m/S 693 mmHg 80%
    09:00 +13°C° 0.7 mm 4 m/S 693 mmHg 82%
    10:00 +13°C° 0.7 mm 4 m/S 693 mmHg 83%
    11:00 +13°C° 0.6 mm 4 m/S 692 mmHg 83%
    12:00 +13°C° 0.6 mm 4 m/S 691 mmHg 83%
    13:00 +13°C° 0.6 mm 3 m/S 690 mmHg 83%
    14:00 +13°C° 0.3 mm 4 m/S 690 mmHg 82%
    15:00 +13°C° 0.3 mm 4 m/S 690 mmHg 81%
    16:00 +13°C° 0.3 mm 5 m/S 690 mmHg 79%
    17:00 +13°C° 0.3 mm 5 m/S 690 mmHg 80%
    18:00 +13°C° 0.3 mm 5 m/S 690 mmHg 81%
    19:00 +13°C° 0.3 mm 4 m/S 690 mmHg 82%
    20:00 +12°C° 0.1 mm 4 m/S 690 mmHg 83%
    21:00 +12°C° 0.1 mm 4 m/S 690 mmHg 84%
    22:00 +12°C° 0.1 mm 4 m/S 690 mmHg 85%
    23:00 +11°C° 0 mm 3 m/S 690 mmHg 86%

    12 Dezember, Donnerstag

    Zeit Temperatur Niederschläge Wind Luftdruck Luftfeuchtigkeit
    00:00 +11°C° 0 mm 3 m/S 690 mmHg 87%
    01:00 +11°C° 0 mm 3 m/S 690 mmHg 88%
    02:00 +10°C° 0 mm 3 m/S 690 mmHg 87%
    03:00 +10°C° 0 mm 2 m/S 690 mmHg 86%
    04:00 +10°C° 0 mm 2 m/S 690 mmHg 85%
    05:00 +10°C° 0 mm 2 m/S 690 mmHg 84%
    06:00 +10°C° 0 mm 2 m/S 690 mmHg 83%
    07:00 +9°C° 0 mm 2 m/S 691 mmHg 81%
    08:00 +10°C° 0 mm 2 m/S 691 mmHg 77%
    09:00 +12°C° 0 mm 3 m/S 692 mmHg 72%
    10:00 +13°C° 0 mm 4 m/S 692 mmHg 67%
    11:00 +14°C° 0 mm 4 m/S 692 mmHg 60%
    12:00 +15°C° 0 mm 5 m/S 692 mmHg 53%
    13:00 +16°C° 0 mm 5 m/S 692 mmHg 46%
    14:00 +15°C° 0 mm 5 m/S 692 mmHg 43%
    15:00 +15°C° 0 mm 5 m/S 692 mmHg 41%
    16:00 +15°C° 0 mm 5 m/S 692 mmHg 39%
    17:00 +14°C° 0 mm 5 m/S 692 mmHg 41%
    18:00 +13°C° 0 mm 4 m/S 692 mmHg 44%
    19:00 +12°C° 0 mm 4 m/S 693 mmHg 47%
    20:00 +12°C° 0 mm 4 m/S 693 mmHg 48%
    21:00 +11°C° 0 mm 3 m/S 693 mmHg 49%
    22:00 +11°C° 0 mm 3 m/S 693 mmHg 50%
    23:00 +10°C° 0 mm 3 m/S 693 mmHg 51%
    Mehr zeigen